| time (UTC) | temp F | wind direction | speed MPH | gust MPH | rain 1hr in | rain 24hr in | rain mn in | humidity % | barometer mb |
| 20260507102828 | 71 | 217 | 0.0 | 3.0 | 0.00 | 0.45 | 0.00 | 90 | 1020.8 |
| 20260507101932 | 71 | 321 | 0.0 | 3.0 | 0.00 | 0.48 | 0.47 | 90 | 1021.1 |
| 20260507101454 | 71 | 267 | 0.0 | 3.0 | 0.00 | 0.45 | 0.00 | 90 | 1020.9 |
| 20260507094328 | 71 | 135 | 0.0 | 3.0 | 0.00 | 0.55 | 0.47 | 91 | 1021.0 |
| 20260507092828 | 72 | 164 | 0.0 | 3.0 | 0.00 | 0.63 | 0.47 | 91 | 1021.1 |
| 20260507091328 | 72 | 157 | 0.0 | 2.0 | 0.00 | 0.66 | 0.47 | 89 | 1021.0 |
| 20260507085828 | 73 | 224 | 0.0 | 3.0 | 0.00 | 0.87 | 0.47 | 89 | 1021.3 |
| 20260507084328 | 72 | 303 | 0.0 | 2.0 | 0.00 | 0.93 | 0.47 | 91 | 1021.5 |
| 20260507083530 | 72 | 135 | 0.0 | 2.0 | 0.00 | 0.93 | 0.47 | 92 | 1021.1 |
| 20260507081328 | 72 | 219 | 0.0 | 2.0 | 0.00 | 0.93 | 0.47 | 92 | 1021.0 |
| 20260507080519 | 72 | 261 | 0.0 | 2.0 | 0.00 | 0.93 | 0.47 | 91 | 1020.9 |
| 20260507074329 | 73 | 193 | 0.0 | 2.0 | 0.00 | 0.93 | 0.47 | 89 | 1021.1 |
| 20260507072828 | 73 | 110 | 0.0 | 3.0 | 0.00 | 0.93 | 0.47 | 88 | 1020.8 |
| 20260507071328 | 74 | 166 | 0.0 | 3.0 | 0.00 | 0.93 | 0.47 | 86 | 1020.8 |
| 20260507071229 | 74 | 298 | 0.0 | 3.0 | 0.00 | 0.93 | 0.47 | 84 | 1020.4 |
| 20260507064328 | 75 | 193 | 1.0 | 3.0 | 0.00 | 0.93 | 0.47 | 84 | 1020.4 |
| 20260507064223 | 76 | 164 | 0.0 | 2.0 | 0.00 | 0.93 | 0.47 | 86 | 1020.3 |
| 20260507061328 | 76 | 269 | 0.0 | 2.0 | 0.00 | 0.93 | 0.47 | 87 | 1020.1 |
| 20260507060539 | 76 | 309 | 0.0 | 1.0 | 0.00 | 0.93 | 0.47 | 87 | 1020.1 |
| 20260507054328 | 76 | 297 | 0.0 | 2.0 | 0.00 | 0.93 | 0.47 | 85 | 1019.9 |
| 20260507052828 | 76 | 293 | 0.0 | 2.0 | 0.00 | 0.93 | 0.47 | 87 | 1019.9 |
| 20260507051329 | 76 | 297 | 0.0 | 2.0 | 0.00 | 0.93 | 0.47 | 86 | 1019.8 |
| 20260507045829 | 77 | 309 | 0.0 | 2.0 | 0.00 | 0.93 | 0.47 | 90 | 1019.6 |
| 20260507044329 | 78 | 296 | 0.0 | 5.0 | 0.00 | 0.93 | 0.47 | 87 | 1019.4 |
| 20260507042828 | 80 | 278 | 1.0 | 4.0 | 0.00 | 0.93 | 0.47 | 83 | 1019.1 |
| 20260507041328 | 81 | 295 | 0.0 | 5.0 | 0.00 | 0.93 | 0.47 | 82 | 1018.7 |
| 20260507040521 | 82 | 286 | 1.0 | 4.0 | 0.00 | 0.93 | 0.47 | 79 | 1018.6 |
| 20260507034328 | 83 | 282 | 2.0 | 3.0 | 0.00 | 0.93 | 0.47 | 77 | 1018.2 |
| 20260507033534 | 82 | 273 | 2.0 | 5.0 | 0.00 | 0.93 | 0.47 | 78 | 1018.3 |
| 20260507032030 | 81 | 255 | 0.0 | 4.0 | 0.00 | 0.93 | 0.47 | 79 | 1018.4 |
| 20260507030533 | 85 | 263 | 2.0 | 4.0 | 0.00 | 0.93 | 0.47 | 71 | 1018.1 |
| 20260507025032 | 83 | 272 | 0.0 | 4.0 | 0.00 | 0.93 | 0.47 | 77 | 1018.0 |
| 20260507023539 | 82 | 285 | 0.0 | 3.0 | 0.00 | 0.93 | 0.47 | 73 | 1017.9 |
| 20260507022035 | 82 | 272 | 1.0 | 6.0 | 0.00 | 0.93 | 0.47 | 78 | 1017.9 |
| 20260507020536 | 85 | 259 | 2.0 | 7.0 | 0.00 | 0.93 | 0.47 | 73 | 1018.0 |
| 20260507014330 | 88 | 267 | 2.0 | 6.0 | 0.00 | 0.93 | 0.47 | 71 | 1017.9 |
| 20260507012830 | 86 | 283 | 1.0 | 4.0 | 0.00 | 0.93 | 0.47 | 69 | 1018.0 |
| 20260507011328 | 86 | 277 | 2.0 | 5.0 | 0.00 | 0.93 | 0.47 | 68 | 1018.1 |
| 20260507005827 | 87 | 278 | 2.0 | 4.0 | 0.00 | 0.93 | 0.47 | 68 | 1018.1 |
| 20260507005038 | 85 | 291 | 2.0 | 5.0 | 0.00 | 0.93 | 0.47 | 72 | 1018.3 |
| 20260507002828 | 83 | 274 | 2.0 | 4.0 | 0.00 | 0.93 | 0.47 | 79 | 1018.7 |
| 20260507001328 | 83 | 283 | 0.0 | 6.0 | 0.00 | 0.93 | 0.47 | 77 | 1018.6 |
| 20260506235827 | 82 | 273 | 1.0 | 5.0 | 0.00 | 0.93 | 0.47 | 80 | 1018.7 |
| 20260506235019 | 84 | 274 | 1.0 | 4.0 | 0.00 | 0.93 | 0.47 | 77 | 1018.8 |
| 20260506233520 | 85 | 306 | 2.0 | 3.0 | 0.00 | 0.93 | 0.47 | 74 | 1019.4 |
| 20260506232031 | 83 | 255 | 1.0 | 4.0 | 0.00 | 0.93 | 0.47 | 77 | 1019.2 |
| 20260506225828 | 81 | 278 | 1.0 | 4.0 | 0.00 | 0.93 | 0.47 | 81 | 1019.6 |
| 20260506224328 | 81 | 280 | 2.0 | 4.0 | 0.00 | 0.93 | 0.47 | 80 | 1019.6 |
| 20260506223532 | 83 | 323 | 0.0 | 6.0 | 0.00 | 0.93 | 0.47 | 80 | 1019.8 |
| 20260506222019 | 83 | 273 | 2.0 | 6.0 | 0.00 | 0.93 | 0.47 | 80 | 1019.7 |
| 20260506215827 | 83 | 283 | 0.0 | 4.0 | 0.00 | 0.93 | 0.47 | 79 | 1019.7 |
| 20260506214328 | 82 | 278 | 2.0 | 5.0 | 0.00 | 0.93 | 0.47 | 79 | 1019.5 |
| 20260506214211 | 84 | 272 | 1.0 | 4.0 | 0.00 | 0.93 | 0.47 | 76 | 1019.9 |
| 20260506211328 | 82 | 273 | 1.0 | 5.0 | 0.00 | 0.93 | 0.47 | 78 | 1020.1 |
| 20260506210525 | 83 | 260 | 1.0 | 3.0 | 0.00 | 0.93 | 0.47 | 77 | 1020.3 |
| 20260506205730 | 82 | 290 | 2.0 | 5.0 | 0.00 | 0.93 | 0.47 | 77 | 1020.2 |
| 20260506202829 | 81 | 306 | 0.0 | 4.0 | 0.00 | 0.93 | 0.47 | 82 | 1020.4 |
| 20260506202035 | 82 | 266 | 1.0 | 3.0 | 0.00 | 0.93 | 0.47 | 80 | 1020.3 |
| 20260506200530 | 82 | 262 | 0.0 | 3.0 | 0.00 | 0.93 | 0.47 | 79 | 1020.3 |
| 20260506195019 | 80 | 269 | 0.0 | 2.0 | 0.00 | 0.93 | 0.47 | 83 | 1020.0 |
| 20260506192827 | 80 | 332 | 0.0 | 3.0 | 0.00 | 0.93 | 0.47 | 85 | 1020.0 |
| 20260506191328 | 78 | 278 | 1.0 | 2.0 | 0.00 | 0.93 | 0.47 | 85 | 1020.0 |
| 20260506190533 | 79 | 297 | 0.0 | 2.0 | 0.00 | 0.93 | 0.47 | 82 | 1020.1 |
| 20260506184329 | 78 | 269 | 0.0 | 2.0 | 0.00 | 0.93 | 0.47 | 83 | 1020.2 |
| 20260506182828 | 76 | 269 | 0.0 | 2.0 | 0.00 | 0.93 | 0.47 | 83 | 1020.0 |
| 20260506181328 | 74 | 269 | 0.0 | 1.0 | 0.00 | 0.93 | 0.47 | 88 | 1020.2 |
| 20260506175830 | 73 | 230 | 0.0 | 2.0 | 0.00 | 0.93 | 0.47 | 93 | 1020.4 |
| 20260506174328 | 71 | 229 | 0.0 | 2.0 | 0.00 | 0.93 | 0.47 | 96 | 1020.1 |
| 20260506172828 | 71 | 166 | 0.0 | 3.0 | 0.00 | 0.93 | 0.47 | 97 | 1019.6 |
| 20260506172028 | 70 | 173 | 0.0 | 3.0 | 0.00 | 0.93 | 0.47 | 97 | 1019.6 |
| 20260506165828 | 69 | 269 | 0.0 | 3.0 | 0.00 | 0.93 | 0.47 | 99 | 1019.1 |
| 20260506165028 | 69 | 268 | 0.0 | 3.0 | 0.00 | 0.93 | 0.47 | 99 | 1019.1 |
| 20260506162829 | 69 | 251 | 0.0 | 3.0 | 0.00 | 0.93 | 0.47 | 99 | 1018.9 |
| 20260506162022 | 68 | 201 | 0.0 | 3.0 | 0.00 | 0.93 | 0.47 | 99 | 1018.6 |
| 20260506160522 | 68 | 237 | 0.0 | 3.0 | 0.00 | 0.93 | 0.47 | 99 | 1018.6 |
| 20260506154328 | 68 | 180 | 0.0 | 3.0 | 0.00 | 0.93 | 0.47 | 99 | 1018.4 |
| 20260506152828 | 68 | 256 | 1.0 | 4.0 | 0.00 | 0.93 | 0.47 | 99 | 1018.5 |
| 20260506151328 | 68 | 156 | 0.0 | 3.0 | 0.00 | 0.93 | 0.47 | 99 | 1018.1 |
| 20260506145827 | 68 | 337 | 0.0 | 4.0 | 0.00 | 0.93 | 0.47 | 99 | 1018.0 |
| 20260506145034 | 69 | 254 | 0.0 | 3.0 | 0.00 | 0.93 | 0.47 | 99 | 1018.4 |
| 20260506142828 | 69 | 306 | 0.0 | 3.0 | 0.00 | 0.93 | 0.47 | 99 | 1018.4 |
| 20260506141329 | 69 | 174 | 0.0 | 3.0 | 0.00 | 0.93 | 0.47 | 99 | 1018.4 |
| 20260506135828 | 69 | 60 | 0.0 | 2.0 | 0.03 | 0.91 | 0.47 | 99 | 1018.5 |
| 20260506134328 | 69 | 209 | 0.0 | 2.0 | 0.21 | 0.91 | 0.47 | 99 | 1018.3 |
| 20260506132827 | 70 | 230 | 0.0 | 3.0 | 0.33 | 0.91 | 0.47 | 99 | 1018.2 |
| 20260506131328 | 70 | 202 | 0.0 | 4.0 | 0.45 | 0.91 | 0.46 | 99 | 1018.3 |
| 20260506125828 | 70 | 335 | 0.0 | 3.0 | 0.42 | 0.48 | 0.44 | 99 | 1018.3 |
| 20260506124328 | 71 | 167 | 0.0 | 2.0 | 0.24 | 0.48 | 0.26 | 99 | 1018.4 |
| 20260506122828 | 71 | 213 | 0.0 | 2.0 | 0.12 | 0.48 | 0.14 | 99 | 1018.8 |
| 20260506121329 | 71 | 188 | 1.0 | 2.0 | 0.00 | 0.48 | 0.02 | 99 | 1018.5 |
| 20260506115828 | 71 | 310 | 0.0 | 4.0 | 0.00 | 0.48 | 0.02 | 99 | 1018.7 |
| 20260506114330 | 71 | 218 | 0.0 | 2.0 | 0.00 | 0.48 | 0.02 | 99 | 1018.7 |
| 20260506113536 | 71 | 319 | 0.0 | 2.0 | 0.00 | 0.48 | 0.02 | 99 | 1018.9 |
| 20260506111329 | 71 | 187 | 0.0 | 2.0 | 0.00 | 0.48 | 0.02 | 99 | 1019.2 |
| 20260506111242 | 70 | 191 | 1.0 | 2.0 | 0.03 | 0.46 | 0.02 | 99 | 1018.9 |
| 20260506104328 | 70 | 280 | 0.0 | 2.0 | 0.10 | 0.46 | 0.02 | 99 | 1019.5 |